| time (UTC) | temp F | wind direction | speed MPH | gust MPH | rain 1hr in | rain 24hr in | rain mn in | humidity % | barometer mb |
| 20260504004440 | 81 | 85 | 2.0 | 2.0 | 0.00 | 0.00 | 0.00 | 79 | 1018.1 |
| 20260504003937 | 81 | 352 | 1.0 | 3.0 | 0.00 | 0.00 | 0.00 | 79 | 1018.0 |
| 20260504003433 | 81 | 24 | 1.0 | 2.0 | 0.00 | 0.00 | 0.00 | 79 | 1017.9 |
| 20260504002930 | 81 | 10 | 2.0 | 6.0 | 0.00 | 0.00 | 0.00 | 79 | 1017.9 |
| 20260504002427 | 81 | 166 | 2.0 | 3.0 | 0.00 | 0.00 | 0.00 | 79 | 1017.8 |
| 20260504001924 | 82 | 102 | 0.0 | 2.0 | 0.00 | 0.00 | 0.00 | 79 | 1018.0 |
| 20260504001422 | 82 | 18 | 2.0 | 6.0 | 0.00 | 0.00 | 0.00 | 78 | 1017.9 |
| 20260504000918 | 82 | 32 | 1.0 | 3.0 | 0.00 | 0.00 | 0.00 | 78 | 1017.8 |
| 20260504000416 | 82 | 9 | 2.0 | 4.0 | 0.00 | 0.00 | 0.00 | 77 | 1017.7 |
| 20260503235912 | 82 | 66 | 2.0 | 3.0 | 0.00 | 0.00 | 0.00 | 77 | 1017.7 |
| 20260503235410 | 82 | 67 | 0.0 | 4.0 | 0.00 | 0.00 | 0.00 | 76 | 1017.7 |
| 20260503234908 | 82 | 269 | 1.0 | 6.0 | 0.00 | 0.00 | 0.00 | 76 | 1017.5 |
| 20260503234405 | 82 | 11 | 1.0 | 8.0 | 0.00 | 0.00 | 0.00 | 75 | 1017.7 |
| 20260503233903 | 82 | 43 | 3.0 | 4.0 | 0.00 | 0.00 | 0.00 | 75 | 1017.4 |
| 20260503233359 | 82 | 345 | 2.0 | 3.0 | 0.00 | 0.00 | 0.00 | 75 | 1017.4 |
| 20260503232855 | 82 | 53 | 1.0 | 6.0 | 0.00 | 0.00 | 0.00 | 75 | 1017.3 |
| 20260503232353 | 82 | 341 | 2.0 | 7.0 | 0.00 | 0.00 | 0.00 | 75 | 1017.2 |
| 20260503231850 | 82 | 325 | 3.0 | 4.0 | 0.00 | 0.00 | 0.00 | 75 | 1017.2 |
| 20260503231347 | 82 | 104 | 3.0 | 4.0 | 0.00 | 0.00 | 0.00 | 75 | 1017.0 |
| 20260503230843 | 82 | 24 | 6.0 | 10.0 | 0.00 | 0.00 | 0.00 | 74 | 1016.9 |
| 20260503230340 | 83 | 349 | 0.0 | 7.0 | 0.00 | 0.00 | 0.00 | 74 | 1017.2 |
| 20260503225838 | 83 | 13 | 0.0 | 7.0 | 0.00 | 0.00 | 0.00 | 74 | 1017.0 |
| 20260503225333 | 83 | 347 | 2.0 | 8.0 | 0.00 | 0.00 | 0.00 | 73 | 1017.1 |
| 20260503224830 | 83 | 30 | 3.0 | 7.0 | 0.00 | 0.00 | 0.00 | 73 | 1017.0 |
| 20260503224327 | 83 | 346 | 1.0 | 3.0 | 0.00 | 0.00 | 0.00 | 73 | 1017.1 |
| 20260503223825 | 83 | 344 | 1.0 | 1.0 | 0.00 | 0.00 | 0.00 | 72 | 1016.7 |
| 20260503223323 | 83 | 327 | 3.0 | 9.0 | 0.00 | 0.00 | 0.00 | 72 | 1017.0 |
| 20260503222818 | 83 | 294 | 2.0 | 7.0 | 0.00 | 0.00 | 0.00 | 72 | 1017.1 |
| 20260503222317 | 84 | 36 | 3.0 | 7.0 | 0.00 | 0.00 | 0.00 | 71 | 1016.9 |
| 20260503221814 | 84 | 13 | 1.0 | 7.0 | 0.00 | 0.00 | 0.00 | 71 | 1017.1 |
| 20260503221313 | 84 | 79 | 4.0 | 8.0 | 0.00 | 0.00 | 0.00 | 70 | 1017.0 |
| 20260503220809 | 84 | 316 | 2.0 | 9.0 | 0.00 | 0.00 | 0.00 | 70 | 1016.8 |
| 20260503220306 | 84 | 298 | 3.0 | 8.0 | 0.00 | 0.00 | 0.00 | 70 | 1016.7 |
| 20260503215802 | 84 | 105 | 3.0 | 6.0 | 0.00 | 0.00 | 0.00 | 70 | 1016.8 |
| 20260503215259 | 84 | 23 | 4.0 | 7.0 | 0.00 | 0.00 | 0.00 | 71 | 1016.8 |
| 20260503214757 | 85 | 347 | 3.0 | 4.0 | 0.00 | 0.00 | 0.00 | 71 | 1016.7 |
| 20260503214254 | 85 | 79 | 3.0 | 7.0 | 0.00 | 0.00 | 0.00 | 70 | 1016.5 |
| 20260503213752 | 86 | 25 | 1.0 | 6.0 | 0.00 | 0.00 | 0.00 | 69 | 1016.5 |
| 20260503213249 | 86 | 70 | 2.0 | 8.0 | 0.00 | 0.00 | 0.00 | 70 | 1016.7 |
| 20260503212746 | 86 | 51 | 2.0 | 7.0 | 0.00 | 0.00 | 0.00 | 69 | 1016.6 |
| 20260503212243 | 86 | 101 | 5.0 | 11.0 | 0.00 | 0.00 | 0.00 | 68 | 1016.7 |
| 20260503211741 | 86 | 94 | 1.0 | 14.0 | 0.00 | 0.00 | 0.00 | 66 | 1016.6 |
| 20260503211237 | 86 | 240 | 1.0 | 7.0 | 0.00 | 0.00 | 0.00 | 67 | 1016.7 |
| 20260503210732 | 87 | 51 | 2.0 | 7.0 | 0.00 | 0.00 | 0.00 | 65 | 1016.7 |
| 20260503210230 | 87 | 23 | 2.0 | 6.0 | 0.00 | 0.00 | 0.00 | 65 | 1016.7 |
| 20260503205725 | 87 | 117 | 4.0 | 9.0 | 0.00 | 0.00 | 0.00 | 65 | 1016.9 |
| 20260503205222 | 87 | 80 | 2.0 | 3.0 | 0.00 | 0.00 | 0.00 | 65 | 1016.9 |
| 20260503204718 | 87 | 359 | 2.0 | 4.0 | 0.00 | 0.00 | 0.00 | 67 | 1017.0 |
| 20260503204216 | 88 | 89 | 2.0 | 7.0 | 0.00 | 0.00 | 0.00 | 65 | 1016.9 |
| 20260503203713 | 88 | 296 | 2.0 | 3.0 | 0.00 | 0.00 | 0.00 | 66 | 1017.0 |
| 20260503203211 | 87 | 61 | 4.0 | 6.0 | 0.00 | 0.00 | 0.00 | 67 | 1017.1 |
| 20260503202708 | 87 | 353 | 2.0 | 6.0 | 0.00 | 0.00 | 0.00 | 68 | 1017.0 |
| 20260503202206 | 88 | 54 | 4.0 | 8.0 | 0.00 | 0.00 | 0.00 | 66 | 1017.1 |
| 20260503201703 | 89 | 310 | 4.0 | 7.0 | 0.00 | 0.00 | 0.00 | 64 | 1016.9 |
| 20260503201200 | 88 | 330 | 4.0 | 8.0 | 0.00 | 0.00 | 0.00 | 64 | 1017.0 |
| 20260503200656 | 88 | 337 | 2.0 | 7.0 | 0.00 | 0.00 | 0.00 | 63 | 1017.2 |
| 20260503200153 | 88 | 66 | 2.0 | 4.0 | 0.00 | 0.00 | 0.00 | 64 | 1017.3 |
| 20260503195650 | 89 | 49 | 4.0 | 6.0 | 0.00 | 0.00 | 0.00 | 64 | 1017.2 |
| 20260503195147 | 89 | 37 | 2.0 | 4.0 | 0.00 | 0.00 | 0.00 | 64 | 1017.2 |
| 20260503194644 | 89 | 357 | 2.0 | 3.0 | 0.00 | 0.00 | 0.00 | 62 | 1017.2 |
| 20260503194139 | 89 | 187 | 2.0 | 8.0 | 0.00 | 0.00 | 0.00 | 61 | 1017.4 |
| 20260503193637 | 89 | 32 | 5.0 | 8.0 | 0.00 | 0.00 | 0.00 | 61 | 1017.4 |
| 20260503193132 | 89 | 28 | 2.0 | 7.0 | 0.00 | 0.00 | 0.00 | 61 | 1017.1 |
| 20260503192628 | 89 | 94 | 2.0 | 10.0 | 0.00 | 0.00 | 0.00 | 61 | 1017.6 |
| 20260503192124 | 89 | 321 | 2.0 | 7.0 | 0.00 | 0.00 | 0.00 | 62 | 1017.4 |
| 20260503191621 | 89 | 64 | 1.0 | 9.0 | 0.00 | 0.00 | 0.00 | 60 | 1017.4 |
| 20260503191118 | 89 | 4 | 1.0 | 6.0 | 0.00 | 0.00 | 0.00 | 60 | 1017.6 |
| 20260503190615 | 90 | 54 | 2.0 | 6.0 | 0.00 | 0.00 | 0.00 | 60 | 1017.5 |
| 20260503190112 | 89 | 343 | 2.0 | 7.0 | 0.00 | 0.00 | 0.00 | 60 | 1017.7 |
| 20260503185608 | 89 | 66 | 4.0 | 9.0 | 0.00 | 0.00 | 0.00 | 62 | 1017.6 |
| 20260503185108 | 89 | 353 | 2.0 | 7.0 | 0.00 | 0.00 | 0.00 | 62 | 1017.8 |
| 20260503184604 | 89 | 253 | 2.0 | 10.0 | 0.00 | 0.00 | 0.00 | 63 | 1017.9 |
| 20260503184100 | 89 | 34 | 2.0 | 9.0 | 0.00 | 0.00 | 0.00 | 64 | 1017.8 |
| 20260503183557 | 88 | 345 | 2.0 | 7.0 | 0.00 | 0.00 | 0.00 | 65 | 1017.8 |
| 20260503183054 | 89 | 107 | 2.0 | 6.0 | 0.00 | 0.00 | 0.00 | 64 | 1018.0 |
| 20260503182553 | 89 | 263 | 2.0 | 10.0 | 0.00 | 0.00 | 0.00 | 63 | 1018.1 |
| 20260503182050 | 88 | 276 | 3.0 | 8.0 | 0.00 | 0.00 | 0.00 | 65 | 1018.2 |
| 20260503181547 | 89 | 208 | 2.0 | 9.0 | 0.00 | 0.00 | 0.00 | 65 | 1018.1 |
| 20260503181043 | 89 | 206 | 2.0 | 8.0 | 0.00 | 0.00 | 0.00 | 65 | 1018.3 |
| 20260503180541 | 90 | 78 | 2.0 | 7.0 | 0.00 | 0.00 | 0.00 | 63 | 1018.3 |
| 20260503180038 | 89 | 144 | 3.0 | 8.0 | 0.00 | 0.00 | 0.00 | 64 | 1018.3 |
| 20260503175535 | 89 | 172 | 3.0 | 8.0 | 0.00 | 0.00 | 0.00 | 64 | 1018.3 |
| 20260503175032 | 88 | 147 | 2.0 | 7.0 | 0.00 | 0.00 | 0.00 | 66 | 1018.4 |
| 20260503174530 | 88 | 0 | 3.0 | 7.0 | 0.00 | 0.00 | 0.00 | 66 | 1018.3 |
| 20260503174026 | 88 | 353 | 1.0 | 6.0 | 0.00 | 0.00 | 0.00 | 66 | 1018.8 |
| 20260503173521 | 89 | 171 | 4.0 | 8.0 | 0.00 | 0.00 | 0.00 | 65 | 1018.8 |
| 20260503173017 | 89 | 166 | 3.0 | 10.0 | 0.00 | 0.00 | 0.00 | 65 | 1018.9 |
| 20260503172515 | 88 | 240 | 1.0 | 6.0 | 0.00 | 0.00 | 0.00 | 67 | 1018.7 |
| 20260503172012 | 87 | 34 | 5.0 | 7.0 | 0.00 | 0.00 | 0.00 | 68 | 1019.2 |
| 20260503171508 | 87 | 64 | 3.0 | 9.0 | 0.00 | 0.00 | 0.00 | 69 | 1019.1 |
| 20260503171006 | 88 | 100 | 5.0 | 9.0 | 0.00 | 0.00 | 0.00 | 68 | 1019.1 |
| 20260503170502 | 88 | 66 | 3.0 | 7.0 | 0.00 | 0.00 | 0.00 | 67 | 1019.0 |
| 20260503150854 | 86 | 55 | 3.0 | 10.0 | 0.00 | 0.00 | 0.00 | 71 | 1020.3 |
| 20260503150350 | 85 | 43 | 0.0 | 13.0 | 0.00 | 0.00 | 0.00 | 73 | 1020.5 |
| 20260503140315 | 86 | 230 | 3.0 | 6.0 | 0.00 | 0.00 | 0.00 | 70 | 1020.4 |
| 20260503131244 | 85 | 86 | 3.0 | 10.0 | 0.00 | 0.00 | 0.00 | 72 | 1020.3 |
| 20260503130742 | 85 | 354 | 3.0 | 11.0 | 0.00 | 0.00 | 0.00 | 73 | 1020.4 |
| 20260503130239 | 85 | 7 | 2.0 | 4.0 | 0.00 | 0.00 | 0.00 | 73 | 1020.3 |
| 20260503120205 | 82 | 100 | 3.0 | 8.0 | 0.00 | 0.00 | 0.00 | 78 | 1019.9 |
| 20260503110632 | 81 | 356 | 2.0 | 4.0 | 0.00 | 0.00 | 0.00 | 80 | 1019.3 |
| 20260503110130 | 81 | 339 | 2.0 | 3.0 | 0.00 | 0.00 | 0.00 | 81 | 1018.9 |
| 20260503081445 | 80 | 349 | 1.0 | 6.0 | 0.00 | 0.00 | 0.00 | 79 | 1017.6 |
| 20260503080943 | 80 | 164 | 1.0 | 2.0 | 0.00 | 0.00 | 0.00 | 79 | 1017.5 |
| 20260503080439 | 80 | 353 | 2.0 | 6.0 | 0.00 | 0.00 | 0.00 | 79 | 1017.6 |
| 20260503072915 | 80 | 347 | 1.0 | 2.0 | 0.00 | 0.00 | 0.00 | 79 | 1017.8 |
| 20260503072413 | 80 | 351 | 1.0 | 3.0 | 0.00 | 0.00 | 0.00 | 79 | 1017.8 |
| 20260503071909 | 80 | 331 | 2.0 | 3.0 | 0.00 | 0.00 | 0.00 | 79 | 1017.8 |
| 20260503071407 | 80 | 342 | 0.0 | 7.0 | 0.00 | 0.00 | 0.00 | 79 | 1018.0 |
| 20260503070902 | 80 | 343 | 1.0 | 3.0 | 0.00 | 0.00 | 0.00 | 79 | 1018.0 |
| 20260503070400 | 80 | 359 | 2.0 | 6.0 | 0.00 | 0.00 | 0.00 | 79 | 1018.0 |
| 20260503060326 | 80 | 12 | 1.0 | 2.0 | 0.00 | 0.00 | 0.00 | 79 | 1018.6 |
| 20260503054814 | 80 | 342 | 0.0 | 7.0 | 0.00 | 0.00 | 0.00 | 79 | 1018.9 |
| 20260503054309 | 80 | 337 | 0.0 | 4.0 | 0.00 | 0.00 | 0.00 | 79 | 1018.9 |
| 20260503053808 | 80 | 19 | 3.0 | 3.0 | 0.00 | 0.00 | 0.00 | 79 | 1019.0 |
| 20260503053306 | 80 | 0 | 1.0 | 6.0 | 0.00 | 0.00 | 0.00 | 79 | 1019.0 |
| 20260503052802 | 80 | 317 | 0.0 | 1.0 | 0.00 | 0.00 | 0.00 | 79 | 1019.0 |
| 20260503052259 | 80 | 342 | 0.0 | 0.0 | 0.00 | 0.00 | 0.00 | 79 | 1018.9 |
| 20260503051754 | 80 | 46 | 2.0 | 4.0 | 0.00 | 0.00 | 0.00 | 78 | 1019.0 |
| 20260503051252 | 80 | 21 | 2.0 | 3.0 | 0.00 | 0.00 | 0.00 | 78 | 1018.9 |
| 20260503050748 | 80 | 14 | 1.0 | 2.0 | 0.00 | 0.00 | 0.00 | 78 | 1019.1 |
| 20260503050244 | 80 | 321 | 0.0 | 3.0 | 0.00 | 0.00 | 0.00 | 78 | 1019.2 |
| 20260503045742 | 80 | 22 | 1.0 | 3.0 | 0.00 | 0.00 | 0.00 | 77 | 1019.2 |
| 20260503045240 | 80 | 319 | 1.0 | 2.0 | 0.00 | 0.00 | 0.00 | 77 | 1019.1 |
| 20260503044736 | 81 | 341 | 0.0 | 3.0 | 0.00 | 0.00 | 0.00 | 77 | 1019.1 |
| 20260503044233 | 81 | 313 | 1.0 | 4.0 | 0.00 | 0.00 | 0.00 | 77 | 1019.4 |
| 20260503043730 | 81 | 133 | 2.0 | 3.0 | 0.00 | 0.00 | 0.00 | 77 | 1019.3 |
| 20260503043227 | 81 | 56 | 1.0 | 2.0 | 0.00 | 0.00 | 0.00 | 76 | 1019.3 |
| 20260503042723 | 81 | 28 | 2.0 | 6.0 | 0.00 | 0.00 | 0.00 | 77 | 1019.4 |
| 20260503042220 | 81 | 49 | 2.0 | 4.0 | 0.00 | 0.00 | 0.00 | 77 | 1019.6 |
| 20260503041716 | 81 | 352 | 2.0 | 2.0 | 0.00 | 0.00 | 0.00 | 77 | 1019.3 |
| 20260503041214 | 81 | 337 | 0.0 | 4.0 | 0.00 | 0.00 | 0.00 | 77 | 1019.5 |
| 20260503040711 | 81 | 6 | 1.0 | 3.0 | 0.00 | 0.00 | 0.00 | 77 | 1019.3 |
| 20260503040209 | 81 | 356 | 2.0 | 3.0 | 0.00 | 0.00 | 0.00 | 77 | 1019.4 |
| 20260503035705 | 81 | 43 | 2.0 | 3.0 | 0.00 | 0.00 | 0.00 | 77 | 1019.4 |
| 20260503035203 | 81 | 336 | 1.0 | 1.0 | 0.00 | 0.00 | 0.00 | 77 | 1019.5 |
| 20260503034700 | 81 | 336 | 1.0 | 2.0 | 0.00 | 0.00 | 0.00 | 77 | 1019.7 |
| 20260503034157 | 81 | 347 | 1.0 | 4.0 | 0.00 | 0.00 | 0.00 | 76 | 1019.7 |
| 20260503033654 | 81 | 35 | 2.0 | 3.0 | 0.00 | 0.00 | 0.00 | 76 | 1019.6 |
| 20260503033152 | 81 | 354 | 1.0 | 3.0 | 0.00 | 0.00 | 0.00 | 76 | 1019.8 |
| 20260503032650 | 81 | 336 | 1.0 | 3.0 | 0.00 | 0.00 | 0.00 | 76 | 1019.7 |
| 20260503032148 | 81 | 4 | 0.0 | 3.0 | 0.00 | 0.00 | 0.00 | 76 | 1019.7 |
| 20260503031645 | 81 | 355 | 0.0 | 1.0 | 0.00 | 0.00 | 0.00 | 76 | 1019.7 |
| 20260503031143 | 81 | 31 | 2.0 | 4.0 | 0.00 | 0.00 | 0.00 | 76 | 1019.8 |
| 20260503030638 | 81 | 342 | 1.0 | 1.0 | 0.00 | 0.00 | 0.00 | 76 | 1019.8 |
| 20260503030135 | 81 | 339 | 0.0 | 4.0 | 0.00 | 0.00 | 0.00 | 76 | 1019.7 |
| 20260503025632 | 81 | 16 | 1.0 | 1.0 | 0.00 | 0.00 | 0.00 | 76 | 1019.8 |
| 20260503025130 | 81 | 344 | 1.0 | 6.0 | 0.00 | 0.00 | 0.00 | 76 | 1019.9 |
| 20260503024626 | 81 | 27 | 4.0 | 6.0 | 0.00 | 0.00 | 0.00 | 76 | 1019.6 |
| 20260503024124 | 81 | 47 | 2.0 | 3.0 | 0.00 | 0.00 | 0.00 | 76 | 1019.5 |
| 20260503023621 | 81 | 350 | 1.0 | 3.0 | 0.00 | 0.00 | 0.00 | 76 | 1019.5 |
| 20260503023118 | 81 | 353 | 0.0 | 1.0 | 0.00 | 0.00 | 0.00 | 75 | 1019.5 |
| 20260503022613 | 81 | 351 | 0.0 | 3.0 | 0.00 | 0.00 | 0.00 | 75 | 1019.5 |
| 20260503022108 | 81 | 328 | 0.0 | 4.0 | 0.00 | 0.00 | 0.00 | 75 | 1019.5 |
| 20260503021606 | 81 | 352 | 0.0 | 3.0 | 0.00 | 0.00 | 0.00 | 75 | 1019.4 |
| 20260503021102 | 82 | 7 | 0.0 | 7.0 | 0.00 | 0.00 | 0.00 | 75 | 1019.6 |
| 20260503020559 | 82 | 349 | 0.0 | 2.0 | 0.00 | 0.00 | 0.00 | 75 | 1019.4 |
| 20260503020056 | 82 | 5 | 0.0 | 2.0 | 0.00 | 0.00 | 0.00 | 75 | 1019.4 |
| 20260503015553 | 82 | 88 | 2.0 | 4.0 | 0.00 | 0.00 | 0.00 | 75 | 1019.3 |
| 20260503015050 | 82 | 18 | 1.0 | 4.0 | 0.00 | 0.00 | 0.00 | 74 | 1019.3 |
| 20260503014546 | 82 | 281 | 1.0 | 1.0 | 0.00 | 0.00 | 0.00 | 74 | 1019.2 |
| 20260503014044 | 82 | 42 | 1.0 | 2.0 | 0.00 | 0.00 | 0.00 | 74 | 1019.1 |
| 20260503013541 | 82 | 352 | 0.0 | 3.0 | 0.00 | 0.00 | 0.00 | 73 | 1019.0 |
| 20260503013039 | 82 | 23 | 2.0 | 2.0 | 0.00 | 0.00 | 0.00 | 73 | 1019.0 |
| 20260503012536 | 82 | 20 | 3.0 | 4.0 | 0.00 | 0.00 | 0.00 | 73 | 1019.0 |
| 20260503012032 | 82 | 348 | 0.0 | 2.0 | 0.00 | 0.00 | 0.00 | 73 | 1019.1 |
| 20260503011529 | 82 | 351 | 0.0 | 3.0 | 0.00 | 0.00 | 0.00 | 73 | 1019.1 |
| 20260503011026 | 82 | 355 | 1.0 | 7.0 | 0.00 | 0.00 | 0.00 | 72 | 1019.1 |
| 20260503010522 | 82 | 342 | 0.0 | 2.0 | 0.00 | 0.00 | 0.00 | 72 | 1019.0 |
| 20260503010020 | 82 | 333 | 2.0 | 4.0 | 0.00 | 0.00 | 0.00 | 72 | 1018.9 |
| 20260503005517 | 82 | 357 | 1.0 | 3.0 | 0.00 | 0.00 | 0.00 | 72 | 1018.9 |
| 20260503005014 | 82 | 4 | 1.0 | 7.0 | 0.00 | 0.00 | 0.00 | 72 | 1018.8 |